星链-5341 (STARLINK-5341 )

导读

STARLINK-5341是美国SpaceX公司星链星座的成员卫星,于2023年1月19日发射升空。它属于星链一代组网卫星,运行在近地轨道,当前运行高度约548公里,质量约297千克,依托星链星座布局,为全球提供高速宽带互联网服务,尤其能为偏远地区网络覆盖提供支撑。卫星设计寿命5-7年,退役后会受控离轨减少太空垃圾,是星链全球通信组网的重要组成部分。

基本信息
目录编号:
55287
目录名称:
STARLINK-5341
国际标识:
2023-010U
轨道中心:
EARTH
卫星名称:
星链-5341
卫星全名:
星链-5341 (STARLINK-5341 )
卫星状态:
在轨 (已飞行1332 天)
发射日期:
2023-01-19 UTC
国别 :
美国 (US)
星等 :
--
该卫星已列入 空间交会检测服务 Space Conjunction Data Service (SCDS) ,当前飞行风险评估等级: 无高风险
轨道信息
数据来源 国际轨道数据 AOE轨道数据
星历时间 2026-09-12T11:09:27+0800
9小时前
查看轨道信息
2026-09-09T23:00:00+0800
2天前
查看轨道信息
半长轴 6950.19km 6950.122km
偏心率 0.0003606 0.0004016
轨道倾角 69.998° 69.997°
近地点辐角 271.484° 287.798°
升交点赤经 254.513° 260.832°
平近点角 88.590° 235.774°
近地点 569.546km 569.193km
远地点 574.56km 574.777km
周期 96.107分钟 96.106分钟
每日圈数 14.983311 14.983532
详细信息
固有亮度:
5
最大亮度:
2.5
卫星平台:
Starlink v1.5
覆盖范围:
全球
运营商:
太空探索技术公司
运营商所在国:
美国
制造商(研发单位):
太空探索技术公司
制造商所在国:
美国
使用方式:
暂无
卫星简介
星链(Starlink)计划是由太空探索技术公司(SpaceX)提出的一个巨型低轨卫星互联网星座项目,计划在2019年至2024年间在太空搭建由约1.2万颗卫星组成的“星链”网络,其中1584颗将部署在地球上空550千米处的近地轨道,并从2020年开始工作。该卫星仍在工作。
2D轨道图
3D轨道图
轨道高度分析图
轨道倾角分析图
轨道综合分析图
查看轨道综合分析图
与全量物体交会距离演化趋势
与全量物体交会风险概率演化趋势